Orbital Elements at Epoch 2459200.5 (2020-Dec-17.0) TDB
Reference: JPL 22 (heliocentric ecliptic J2000)
Element | Value | Uncertainty (1-sigma) | Units |
e | .1237951365531079 | 4.5823e-08 | |
a | 2.278029280201867 | 9.7175e-09 | au |
q | 1.996020334387299 | 1.0162e-07 | au |
i | 6.530327786186096 | 5.3855e-06 | deg |
node | 250.182285409899 | 3.2167e-05 | deg |
peri | 104.3219667129406 | 3.8232e-05 | deg |
M | 56.03591629982569 | 2.0786e-05 | deg |
tp | 2459005.020438177260 (2020-Jun-04.52043818) | 7.2225e-05 | TDB |
period | 1255.848871635302 3.44 | 8.0357e-06 2.2e-08 | d yr |
n | .2866586960668496 | 1.8342e-09 | deg/d |
Q | 2.560038226016435 | 1.092e-08 | au |
|
| | Orbit Determination Parameters
Additional Information
|